SCP
2 2 2 2 1 1 1 1 1 1 1 2 2 2 2 1 1 2 3 2 1 1 1 0 0 0 0 0 0 0 0 1 1 1 1 1 1 1
3 3 2 2 2 2 1 1 1 1 1 2 2 2 2 2 2 3 3 3 1 1 1 0 0 0 0 0 0 0 0 0 1 1 1 1 1 1
4 4 4 3 3 2 2 2 2 2 2 2 3 3 3 3 4 5 5 4 3 2 1 0 0 0 0 0 0 0 0 0 0 1 1 1 1 1
5 5 5 4 4 3 3 3 3 3 3 4 4 4 4 5 6 7 6 5 4 2 1 0 0 0 0 0 0 0 0 0 0 0 0 0 1 1
6 6 6 6 5 5 4 3 3 4 5 6 6 5 5 5 7 7 7 6 5 3 1 1 0 0 0 0 0 0 0 0 0 0 0 0 0 0
7 7 6 6 6 5 5 4 4 4 5 6 6 6 5 5 7 7 8 8 7 4 3 1 1 0 0 0 0 0 0 0 0 0 0 0 0 0
7 7 7 6 5 4 4 4 4 4 4 5 5 5 5 5 6 7 8 9 8 6 4 3 2 1 1 0 0 0 0 0 0 0 0 0 0 0
6 6 5 5 4 3 2 2 2 3 3 3 4 4 4 4 5 5 7 8 8 6 6 4 3 2 2 1 0 0 0 0 0 0 0 0 0 0
4 4 4 3 3 3 3 2 2 2 2 3 3 3 3 3 4 4 6 7 6 5 5 4 4 3 2 1 1 0 0 0 0 0 0 0 0 0
3 3 3 3 3 3 4 3 3 2 2 2 3 3 3 3 3 3 4 5 4 4 5 4 4 3 2 1 1 0 0 0 0 0 0 0 0 0
2 3 3 2 2 2 3 4 3 3 2 1 2 2 2 2 2 2 3 3 3 4 5 5 4 3 2 1 1 0 0 0 0 0 0 0 0 0
2 3 3 2 2 2 2 3 3 3 2 2 1 1 2 2 2 2 3 3 3 4 5 5 4 3 2 2 1 1 0 0 0 0 0 0 0 0
2 3 3 2 1 1 2 3 3 2 2 2 2 2 2 3 3 4 4 3 3 4 4 4 3 3 3 2 2 2 1 0 0 0 0 0 0 0
2 3 3 2 1 1 1 1 1 1 2 2 2 3 3 4 5 6 6 5 5 5 4 4 3 3 3 3 3 3 2 1 1 0 0 0 0 0
2 3 3 2 2 1 1 1 1 1 2 3 3 4 4 5 6 7 7 8 7 5 4 4 4 3 3 3 3 4 3 2 1 1 0 0 0 0
2 2 2 2 1 1 1 1 1 2 3 4 4 5 5 5 5 6 7 8 7 5 4 5 5 4 4 4 4 4 4 3 2 1 0 0 0 0
3 3 3 2 2 2 3 3 3 3 4 4 5 5 5 5 5 5 6 6 5 4 4 4 5 5 5 4 4 4 4 3 2 1 1 1 1 1
5 6 6 4 4 4 4 4 4 4 4 4 4 4 5 5 5 5 5 5 5 4 4 4 5 5 5 5 5 4 3 2 1 1 1 1 1 1
8 9 9 7 5 5 4 4 4 4 3 3 3 3 4 5 6 6 6 6 5 5 5 4 5 5 5 5 4 3 2 2 1 1 1 1 1 1
8 10 11 10 7 5 4 3 3 2 2 2 3 3 4 5 6 6 6 6 6 5 5 5 5 6 6 5 5 3 2 1 1 0 0 1 0 0
8 9 10 10 8 5 3 2 2 2 2 2 3 3 4 4 5 5 6 6 6 6 5 5 5 6 6 6 5 4 2 1 0 0 0 0 0 0
8 9 10 10 8 6 3 2 2 2 2 3 3 3 3 4 4 4 5 6 6 6 6 6 5 5 6 6 5 4 2 1 1 0 0 0 0 0
9 10 11 10 8 6 4 2 2 2 3 3 2 3 3 4 4 4 4 5 7 7 7 6 6 5 5 5 5 4 3 2 1 0 0 0 0 0
Wind_Speed
2 2 2 2 2 2 1 1 1 1 1 1 0 1 1 2 5 4 4 7 9 8 7 5 4 3 3 3 3 2 2 2 3 3 4 4 5 5
2 1 1 2 2 2 1 1 1 1 2 1 1 1 1 1 4 3 3 7 9 9 8 7 6 5 4 3 3 3 3 2 2 3 4 4 4 5
3 2 2 2 2 2 2 1 1 1 2 2 0 1 1 1 2 2 3 4 5 9 9 9 8 7 5 4 4 3 3 2 2 3 3 3 4 4
3 2 2 2 2 2 2 2 1 1 1 2 2 1 2 2 3 3 4 4 4 8 10 10 9 8 6 5 5 4 3 3 2 2 2 3 3 4
3 3 3 2 2 2 2 2 2 2 1 2 2 2 1 1 1 3 3 2 3 5 9 9 9 9 8 7 6 5 4 3 3 2 2 2 3 3
3 3 3 3 2 3 3 2 3 3 2 2 2 1 1 1 1 2 2 2 2 2 3 6 8 10 9 8 7 6 5 4 4 3 3 2 2 3
3 3 3 2 2 2 2 2 2 2 2 2 2 2 1 1 1 2 2 1 2 2 2 3 4 4 5 7 8 7 6 6 5 4 3 3 3 3
4 3 3 3 4 4 3 3 3 4 3 3 2 2 2 2 1 2 2 2 2 1 1 3 3 4 4 4 7 9 8 7 6 5 4 4 4 3
4 3 4 3 3 2 3 4 5 6 6 4 4 4 3 2 2 2 2 2 3 2 1 3 2 2 3 4 9 9 8 7 7 6 5 5 5 5
3 3 3 2 2 2 3 4 4 4 5 4 4 4 3 2 2 3 3 4 3 2 1 2 2 2 1 2 8 10 10 9 8 7 6 6 6 5
4 4 3 3 3 3 3 4 4 3 3 3 4 5 5 5 3 2 2 2 3 2 1 1 2 2 1 2 4 9 9 9 9 8 8 7 6 5
3 4 5 4 3 3 3 3 4 4 3 3 4 5 5 5 6 4 3 3 3 2 1 1 2 1 2 1 2 3 4 7 9 9 8 7 6 3
3 3 3 5 5 5 4 4 4 4 3 4 3 3 3 3 3 4 3 3 3 2 1 0 1 1 1 2 1 2 3 3 4 4 7 8 7 6
3 2 1 4 4 5 4 4 4 4 3 3 3 3 3 3 3 3 3 4 4 4 3 2 2 2 2 2 2 1 2 2 2 2 3 5 7 8
3 2 2 4 4 4 6 5 4 3 3 3 3 3 2 2 2 2 2 3 3 4 4 3 3 3 3 3 2 2 1 1 1 1 2 2 3 4
4 3 4 6 5 4 3 4 4 4 4 4 3 3 2 1 2 2 2 2 3 3 3 4 4 4 3 3 3 3 2 1 1 1 1 1 1 1
3 2 2 3 3 3 3 3 4 4 4 4 3 3 2 2 2 2 2 2 3 3 2 2 3 3 3 3 3 2 2 2 1 1 1 1 1 1
3 3 4 4 4 3 3 4 4 4 4 4 4 3 3 3 3 2 2 3 3 2 2 2 2 2 2 2 3 3 2 2 1 1 1 1 1 1
4 4 4 4 3 3 3 3 4 4 3 3 3 3 3 3 3 2 2 2 2 2 2 2 1 2 3 3 2 3 3 2 1 1 1 1 2 2
5 5 4 3 3 3 3 3 2 2 2 2 3 3 3 3 3 3 2 2 2 2 2 2 1 2 2 3 2 2 4 3 2 2 2 1 1 0
5 5 4 3 3 3 2 2 2 2 2 2 2 2 2 2 2 2 2 3 3 2 2 2 2 3 2 1 2 2 1 3 3 2 2 2 2 2
5 5 4 3 3 3 3 3 2 2 2 2 2 2 2 2 2 3 2 2 2 2 2 2 2 2 2 3 3 3 2 1 2 3 3 3 2 3
5 4 3 3 3 3 3 3 3 2 2 2 2 2 2 1 1 2 2 2 2 2 2 2 1 1 2 2 2 2 2 2 2 2 2 4 5 6
Wind_Direction
244 244 267 279 285 296 299 268 248 272 271 240 189 146 155 133 165 183 174 191 197 200 201 203 211 224 235 248 254 268 280 288 299 307 311 312 308 305
238 237 283 303 308 302 299 286 249 247 269 270 218 177 222 216 180 191 189 190 200 202 204 204 206 213 222 234 243 247 261 277 289 297 305 310 312 311
242 227 231 263 305 307 301 290 283 274 269 282 277 202 213 234 192 215 200 199 197 205 204 201 204 207 211 222 230 235 246 259 278 295 305 308 310 309
231 242 246 246 254 287 305 302 291 276 259 277 284 255 238 218 200 230 229 218 194 198 200 199 201 200 202 210 209 223 237 242 255 283 298 304 306 302
224 234 244 254 264 266 277 287 291 286 253 254 262 250 242 243 216 250 258 250 225 193 195 201 201 198 200 201 200 211 225 234 244 254 271 292 301 304
225 227 231 232 244 263 262 273 283 287 277 268 266 265 258 257 233 254 263 257 247 224 200 194 197 198 201 200 199 205 214 221 229 237 239 256 278 294
227 225 222 210 219 246 268 287 290 286 282 275 268 265 266 291 275 273 276 261 246 227 217 206 187 194 201 207 205 207 209 213 218 225 231 243 258 269
228 232 220 210 218 221 244 262 262 266 280 282 277 277 270 271 277 284 285 297 284 250 227 238 198 199 195 191 191 195 204 211 217 221 224 230 242 250
228 231 246 224 198 219 240 246 248 242 237 255 273 282 286 299 301 290 290 286 268 269 264 260 229 216 191 174 175 185 199 210 217 222 223 226 232 240
229 229 237 243 243 246 249 247 242 236 233 234 256 273 279 284 276 266 266 269 264 266 248 260 262 252 187 169 186 193 203 209 214 220 225 230 232 240
229 229 222 222 233 241 257 259 256 253 245 243 243 249 257 263 254 276 279 282 282 279 278 266 270 279 232 201 203 201 208 213 216 221 226 232 236 243
229 222 220 216 216 219 237 256 259 265 262 254 254 253 247 243 230 224 239 253 271 277 238 236 273 288 280 230 187 191 211 222 222 225 228 232 228 224
240 234 213 190 201 221 230 249 257 270 273 258 253 246 231 232 220 213 218 225 244 260 271 247 272 270 250 271 246 209 202 209 209 222 226 230 223 209
258 260 195 175 199 222 230 249 261 273 264 257 256 254 243 237 228 214 214 221 228 237 239 232 253 263 269 272 274 245 221 207 192 203 204 205 216 218
261 272 225 209 212 220 236 245 248 248 251 253 251 249 247 243 226 216 215 221 235 244 234 226 233 248 253 259 266 265 260 245 194 187 199 201 198 196
255 253 219 217 229 241 235 229 230 234 234 246 252 250 242 226 230 226 230 220 231 247 234 221 225 230 248 258 256 265 262 244 212 182 192 227 228 189
216 217 221 216 221 225 225 223 226 226 230 237 246 250 244 236 234 229 233 236 245 251 243 229 223 217 222 242 252 252 258 262 218 174 188 232 232 176
187 223 230 230 229 226 228 227 225 224 228 231 234 233 235 235 239 234 228 233 242 246 245 236 226 237 243 262 239 247 256 259 258 213 222 218 226 186
201 231 237 237 234 227 237 242 232 221 220 229 232 230 229 237 242 240 233 240 243 239 238 241 231 218 246 260 259 217 234 244 243 236 233 231 231 206
222 234 235 230 226 229 240 249 248 228 220 232 237 238 231 230 240 237 229 237 244 243 246 232 216 218 235 250 262 253 226 222 216 221 233 242 241 169
225 230 233 226 224 225 232 243 238 231 230 234 246 249 247 245 249 250 231 230 241 248 252 241 223 221 222 223 251 258 248 210 202 209 216 228 237 225
237 236 231 225 219 228 234 235 233 223 218 225 238 239 244 255 256 256 250 237 233 240 254 244 210 209 213 231 237 239 243 213 213 227 231 220 214 215
235 238 232 227 226 226 233 229 231 229 216 215 216 226 239 248 260 267 266 260 261 255 259 253 236 225 231 229 239 239 233 225 206 214 247 250 237 235